Location: Oshawa
(43.9000°N, 78.8670°W)
Time: 20:45:26
(UTC-04:00)

Altair - Visible Passes

Search period start: 24 April 2014 00:00
Search period end: 04 May 2014 00:00
Orbit: 1501 x 1683 km, 47.2° (Epoch: 24 April)

Date Brightness Start Highest point End Pass type
(mag) Time Alt. Az. Time Alt. Az. Time Alt. Az.
24 Apr 8.6 05:31:25 10° SSW 05:39:47 36° SE 05:47:54 10° ENE visible
25 Apr 8.7 05:06:35 10° SSW 05:14:45 33° SE 05:22:41 10° ENE visible
26 Apr 8.7 04:41:46 10° S 04:49:43 30° SE 04:57:26 10° ENE visible
27 Apr 8.8 04:17:18 11° S 04:24:42 28° SE 04:32:10 10° ENE visible
28 Apr 8.8 03:53:38 14° S 03:59:41 25° SE 04:06:52 10° E visible
29 Apr 8.9 03:29:54 16° SSE 03:34:40 23° SE 03:41:32 10° E visible
29 Apr 7.8 05:28:40 10° SW 05:38:09 66° SSE 05:47:19 10° ENE visible
30 Apr 8.9 03:06:07 17° SSE 03:09:39 21° SE 03:16:09 10° E visible
30 Apr 7.8 05:04:08 12° SW 05:13:03 62° SSE 05:22:12 10° ENE visible
01 May 8.9 02:42:16 17° SE 02:44:39 19° SE 02:50:42 10° E visible
01 May 7.8 04:40:17 17° SW 04:47:57 59° SE 04:57:03 10° ENE visible
02 May 9.0 02:18:22 17° SE 02:19:39 17° SE 02:25:11 10° E visible
02 May 7.8 04:16:22 22° SSW 04:22:52 55° SE 04:31:55 10° ENE visible
03 May 9.1 01:54:25 15° SE 01:54:40 15° SE 01:59:33 10° E visible
03 May 7.9 03:52:25 27° SSW 03:57:47 52° SE 04:06:46 10° ENE visible
